| time (UTC) | temp C | wind direction | speed KPH | gust KPH | rain 1hr cm | rain 24hr cm | rain mn cm | humidity % | barometer mb |
| 20260831225306 | 20 | 28 | 3.2 | 4.8 | 0.00 | 0.00 | 0.00 | 79 | 1022.0 |
| 20260831224805 | 21 | 19 | 1.6 | 3.2 | 0.00 | 0.00 | 0.00 | 79 | 1022.0 |
| 20260831223304 | 21 | 22 | 3.2 | 4.8 | 0.00 | 0.00 | 0.00 | 80 | 1023.0 |
| 20260831222306 | 21 | 32 | 1.6 | 3.2 | 0.00 | 0.00 | 0.00 | 81 | 1023.0 |
| 20260831221805 | 21 | 31 | 1.6 | 4.8 | 0.00 | 0.00 | 0.00 | 81 | 1023.0 |
| 20260831221304 | 21 | 42 | 1.6 | 4.8 | 0.00 | 0.00 | 0.00 | 81 | 1023.0 |
| 20260831220806 | 21 | 35 | 1.6 | 4.8 | 0.00 | 0.00 | 0.00 | 81 | 1022.0 |
| 20260831215804 | 21 | 34 | 0.0 | 4.8 | 0.00 | 0.00 | 0.00 | 81 | 1022.0 |
| 20260831215306 | 21 | 27 | 0.0 | 3.2 | 0.00 | 0.00 | 0.00 | 81 | 1022.0 |
| 20260831214804 | 21 | 32 | 0.0 | 1.6 | 0.00 | 0.00 | 0.00 | 82 | 1022.0 |
| 20260831213304 | 21 | 5 | 0.0 | 3.2 | 0.00 | 0.00 | 0.00 | 82 | 1022.0 |
| 20260831212805 | 21 | 5 | 0.0 | 1.6 | 0.00 | 0.00 | 0.00 | 83 | 1022.0 |
| 20260831212306 | 21 | 11 | 0.0 | 0.0 | 0.00 | 0.00 | 0.00 | 82 | 1022.0 |
| 20260831210804 | 21 | 11 | 0.0 | 3.2 | 0.00 | 0.00 | 0.00 | 82 | 1021.0 |
| 20260831210304 | 21 | 28 | 0.0 | 3.2 | 0.00 | 0.00 | 0.00 | 81 | 1021.0 |
| 20260831205804 | 21 | 10 | 0.0 | 1.6 | 0.00 | 0.00 | 0.00 | 81 | 1021.0 |
| 20260831205306 | 21 | 10 | 0.0 | 0.0 | 0.00 | 0.00 | 0.00 | 81 | 1021.0 |
| 20260831204304 | 21 | 10 | 0.0 | 3.2 | 0.00 | 0.00 | 0.00 | 81 | 1021.0 |
| 20260831203805 | 22 | 12 | 1.6 | 3.2 | 0.00 | 0.00 | 0.00 | 80 | 1021.0 |
| 20260831203304 | 22 | 341 | 0.0 | 0.0 | 0.00 | 0.00 | 0.00 | 80 | 1021.0 |
| 20260831202804 | 22 | 76 | 0.0 | 0.0 | 0.00 | 0.00 | 0.00 | 80 | 1021.0 |
| 20260831195804 | 22 | 76 | 0.0 | 1.6 | 0.00 | 0.00 | 0.00 | 78 | 1021.0 |
| 20260831195306 | 22 | 76 | 0.0 | 3.2 | 0.00 | 0.00 | 0.00 | 77 | 1021.0 |
| 20260831193804 | 23 | 163 | 3.2 | 4.8 | 0.00 | 0.00 | 0.00 | 77 | 1021.0 |
| 20260831193304 | 23 | 148 | 3.2 | 4.8 | 0.00 | 0.00 | 0.00 | 76 | 1021.0 |
| 20260831191304 | 23 | 156 | 4.8 | 8.0 | 0.00 | 0.00 | 0.00 | 75 | 1021.0 |
| 20260831190804 | 23 | 132 | 3.2 | 4.8 | 0.00 | 0.00 | 0.00 | 75 | 1021.0 |
| 20260831190304 | 23 | 120 | 1.6 | 8.0 | 0.00 | 0.00 | 0.00 | 74 | 1021.0 |
| 20260831184805 | 24 | 133 | 3.2 | 9.7 | 0.00 | 0.00 | 0.00 | 74 | 1021.0 |
| 20260831183304 | 24 | 216 | 4.8 | 8.0 | 0.00 | 0.00 | 0.00 | 73 | 1021.0 |
| 20260831182805 | 24 | 160 | 4.8 | 4.8 | 0.00 | 0.00 | 0.00 | 74 | 1021.0 |
| 20260831182305 | 24 | 199 | 3.2 | 9.7 | 0.00 | 0.00 | 0.00 | 72 | 1021.0 |
| 20260831181804 | 24 | 203 | 4.8 | 8.0 | 0.00 | 0.00 | 0.00 | 72 | 1021.0 |
| 20260831175804 | 25 | 168 | 3.2 | 9.7 | 0.00 | 0.00 | 0.00 | 71 | 1021.0 |
| 20260831175306 | 24 | 195 | 4.8 | 8.0 | 0.00 | 0.00 | 0.00 | 71 | 1021.0 |
| 20260831173304 | 25 | 196 | 3.2 | 8.0 | 0.00 | 0.00 | 0.00 | 68 | 1021.0 |
| 20260831172804 | 25 | 216 | 4.8 | 9.7 | 0.00 | 0.00 | 0.00 | 69 | 1021.0 |
| 20260831172306 | 25 | 152 | 6.4 | 9.7 | 0.00 | 0.00 | 0.00 | 69 | 1021.0 |
| 20260831170804 | 25 | 213 | 4.8 | 11.3 | 0.00 | 0.00 | 0.00 | 70 | 1021.0 |
| 20260831170305 | 25 | 164 | 4.8 | 9.7 | 0.00 | 0.00 | 0.00 | 70 | 1021.0 |
| 20260831164305 | 25 | 234 | 4.8 | 11.3 | 0.00 | 0.00 | 0.00 | 69 | 1021.0 |
| 20260831162805 | 25 | 234 | 8.0 | 9.7 | 0.00 | 0.00 | 0.00 | 69 | 1021.0 |
| 20260831162306 | 25 | 203 | 4.8 | 11.3 | 0.00 | 0.00 | 0.00 | 67 | 1021.0 |
| 20260831161805 | 25 | 251 | 6.4 | 11.3 | 0.00 | 0.00 | 0.00 | 68 | 1021.0 |
| 20260831155306 | 25 | 209 | 4.8 | 14.5 | 0.00 | 0.00 | 0.00 | 68 | 1021.0 |
| 20260831152804 | 26 | 153 | 8.0 | 11.3 | 0.00 | 0.00 | 0.00 | 69 | 1021.0 |
| 20260831152306 | 26 | 168 | 8.0 | 14.5 | 0.00 | 0.00 | 0.00 | 70 | 1021.0 |
| 20260831151806 | 25 | 223 | 6.4 | 14.5 | 0.00 | 0.00 | 0.00 | 71 | 1021.0 |
| 20260831145306 | 25 | 246 | 6.4 | 12.9 | 0.00 | 0.00 | 0.00 | 73 | 1021.0 |
| 20260831144806 | 25 | 217 | 4.8 | 9.7 | 0.00 | 0.00 | 0.00 | 71 | 1021.0 |
| 20260831144305 | 25 | 216 | 4.8 | 14.5 | 0.00 | 0.00 | 0.00 | 70 | 1021.0 |
| 20260831143805 | 25 | 198 | 8.0 | 11.3 | 0.00 | 0.00 | 0.00 | 71 | 1022.0 |
| 20260831143306 | 25 | 253 | 6.4 | 11.3 | 0.00 | 0.00 | 0.00 | 71 | 1022.0 |
| 20260831135306 | 25 | 235 | 6.4 | 14.5 | 0.00 | 0.00 | 0.00 | 72 | 1022.0 |
| 20260831133805 | 25 | 233 | 8.0 | 16.1 | 0.00 | 0.00 | 0.00 | 73 | 1022.0 |
| 20260831133306 | 25 | 258 | 4.8 | 11.3 | 0.00 | 0.00 | 0.00 | 74 | 1022.0 |
| 20260831132805 | 25 | 248 | 8.0 | 12.9 | 0.00 | 0.00 | 0.00 | 71 | 1022.0 |
| 20260831132307 | 24 | 236 | 6.4 | 12.9 | 0.00 | 0.00 | 0.00 | 75 | 1022.0 |
| 20260831130805 | 25 | 228 | 8.0 | 14.5 | 0.00 | 0.00 | 0.00 | 74 | 1022.0 |
| 20260831130305 | 25 | 230 | 4.8 | 14.5 | 0.00 | 0.00 | 0.00 | 72 | 1022.0 |
| 20260831125306 | 25 | 191 | 4.8 | 11.3 | 0.00 | 0.00 | 0.00 | 74 | 1022.0 |
| 20260831124805 | 24 | 220 | 8.0 | 12.9 | 0.00 | 0.00 | 0.00 | 73 | 1022.0 |
| 20260831124306 | 25 | 245 | 8.0 | 14.5 | 0.00 | 0.00 | 0.00 | 70 | 1022.0 |
| 20260831122806 | 25 | 205 | 4.8 | 9.7 | 0.00 | 0.00 | 0.00 | 67 | 1022.0 |
| 20260831122306 | 25 | 231 | 6.4 | 11.3 | 0.00 | 0.00 | 0.00 | 70 | 1022.0 |
| 20260831121806 | 25 | 200 | 8.0 | 9.7 | 0.00 | 0.00 | 0.00 | 67 | 1022.0 |
| 20260831121305 | 26 | 164 | 6.4 | 9.7 | 0.00 | 0.00 | 0.00 | 66 | 1022.0 |
| 20260831120806 | 25 | 171 | 4.8 | 9.7 | 0.00 | 0.00 | 0.00 | 70 | 1022.0 |
| 20260831112806 | 23 | 226 | 4.8 | 9.7 | 0.00 | 0.00 | 0.00 | 75 | 1022.0 |
| 20260831110305 | 23 | 199 | 3.2 | 8.0 | 0.00 | 0.00 | 0.00 | 73 | 1022.0 |
| 20260831105805 | 23 | 260 | 3.2 | 4.8 | 0.00 | 0.00 | 0.00 | 74 | 1022.0 |
| 20260831105306 | 24 | 207 | 3.2 | 8.0 | 0.00 | 0.00 | 0.00 | 72 | 1022.0 |
| 20260831104805 | 23 | 202 | 4.8 | 11.3 | 0.00 | 0.00 | 0.00 | 73 | 1022.0 |
| 20260831104306 | 23 | 233 | 3.2 | 8.0 | 0.00 | 0.00 | 0.00 | 77 | 1022.0 |
| 20260831103805 | 23 | 230 | 4.8 | 8.0 | 0.00 | 0.00 | 0.00 | 76 | 1022.0 |
| 20260831103305 | 23 | 255 | 4.8 | 8.0 | 0.00 | 0.00 | 0.00 | 76 | 1022.0 |
| 20260831094805 | 22 | 247 | 3.2 | 4.8 | 0.00 | 0.00 | 0.00 | 78 | 1022.0 |
| 20260831094305 | 22 | 247 | 0.0 | 3.2 | 0.00 | 0.00 | 0.00 | 79 | 1022.0 |
| 20260831093805 | 22 | 248 | 4.8 | 4.8 | 0.00 | 0.00 | 0.00 | 80 | 1022.0 |
| 20260831091305 | 22 | 218 | 1.6 | 4.8 | 0.00 | 0.00 | 0.00 | 78 | 1022.0 |
| 20260831090805 | 22 | 263 | 1.6 | 4.8 | 0.00 | 0.00 | 0.00 | 79 | 1022.0 |
| 20260831090305 | 22 | 262 | 0.0 | 3.2 | 0.00 | 0.00 | 0.00 | 80 | 1022.0 |
| 20260831085805 | 22 | 272 | 3.2 | 4.8 | 0.00 | 0.00 | 0.00 | 79 | 1022.0 |
| 20260831085306 | 22 | 252 | 4.8 | 8.0 | 0.00 | 0.00 | 0.00 | 78 | 1022.0 |
| 20260831084306 | 22 | 271 | 3.2 | 8.0 | 0.00 | 0.00 | 0.00 | 79 | 1022.0 |
| 20260831083805 | 22 | 273 | 0.0 | 1.6 | 0.00 | 0.00 | 0.00 | 80 | 1022.0 |
| 20260831083305 | 22 | 275 | 1.6 | 4.8 | 0.00 | 0.00 | 0.00 | 82 | 1022.0 |
| 20260831082806 | 22 | 276 | 0.0 | 4.8 | 0.00 | 0.00 | 0.00 | 81 | 1022.0 |
| 20260831080805 | 21 | 263 | 0.0 | 3.2 | 0.00 | 0.00 | 0.00 | 83 | 1021.0 |
| 20260831080305 | 21 | 269 | 0.0 | 1.6 | 0.00 | 0.00 | 0.00 | 84 | 1021.0 |
| 20260831075805 | 21 | 297 | 0.0 | 0.0 | 0.00 | 0.00 | 0.00 | 88 | 1021.0 |
| 20260831074805 | 20 | 300 | 0.0 | 1.6 | 0.00 | 0.00 | 0.00 | 89 | 1021.0 |
| 20260831074305 | 20 | 317 | 0.0 | 1.6 | 0.00 | 0.00 | 0.00 | 89 | 1021.0 |
| 20260831073805 | 20 | 317 | 0.0 | 1.6 | 0.00 | 0.00 | 0.00 | 89 | 1021.0 |
| 20260831072306 | 19 | 323 | 0.0 | 0.0 | 0.00 | 0.00 | 0.00 | 88 | 1021.0 |
| 20260831071805 | 19 | 323 | 0.0 | 1.6 | 0.00 | 0.00 | 0.00 | 88 | 1021.0 |
| 20260831065306 | 19 | 255 | 1.6 | 4.8 | 0.00 | 0.00 | 0.00 | 88 | 1021.0 |
| 20260831064805 | 19 | 351 | 1.6 | 3.2 | 0.00 | 0.00 | 0.00 | 88 | 1021.0 |
| 20260831064306 | 19 | 343 | 1.6 | 3.2 | 0.00 | 0.00 | 0.00 | 88 | 1021.0 |
| 20260831063305 | 19 | 335 | 0.0 | 1.6 | 0.00 | 0.00 | 0.00 | 88 | 1020.0 |
| 20260831062805 | 19 | 342 | 0.0 | 3.2 | 0.00 | 0.00 | 0.00 | 88 | 1020.0 |
| 20260831055805 | 19 | 346 | 1.6 | 4.8 | 0.00 | 0.00 | 0.00 | 87 | 1020.0 |
| 20260831055306 | 19 | 21 | 1.6 | 3.2 | 0.00 | 0.00 | 0.00 | 87 | 1020.0 |
| 20260831054805 | 19 | 11 | 0.0 | 3.2 | 0.00 | 0.00 | 0.00 | 88 | 1020.0 |
| 20260831053305 | 19 | 336 | 0.0 | 1.6 | 0.00 | 0.00 | 0.00 | 87 | 1020.0 |
| 20260831051805 | 19 | 350 | 1.6 | 3.2 | 0.00 | 0.00 | 0.00 | 87 | 1020.0 |
| 20260831050806 | 19 | 10 | 0.0 | 3.2 | 0.00 | 0.00 | 0.00 | 87 | 1021.0 |
| 20260831050304 | 19 | 4 | 0.0 | 3.2 | 0.00 | 0.00 | 0.00 | 87 | 1021.0 |
| 20260831045805 | 19 | 0 | 0.0 | 1.6 | 0.00 | 0.00 | 0.00 | 87 | 1021.0 |
| 20260831040805 | 19 | 333 | 0.0 | 3.2 | 0.00 | 0.00 | 0.00 | 86 | 1021.0 |
| 20260831040305 | 19 | 11 | 0.0 | 3.2 | 0.00 | 0.00 | 0.00 | 87 | 1021.0 |
| 20260831034305 | 19 | 323 | 0.0 | 3.2 | 0.00 | 0.00 | 0.00 | 86 | 1021.0 |
| 20260831033805 | 19 | 323 | 0.0 | 1.6 | 0.00 | 0.00 | 0.00 | 86 | 1021.0 |
| 20260831033305 | 19 | 343 | 0.0 | 1.6 | 0.00 | 0.00 | 0.00 | 86 | 1021.0 |
| 20260831032804 | 19 | 357 | 1.6 | 3.2 | 0.00 | 0.00 | 0.00 | 86 | 1021.0 |
| 20260831030805 | 19 | 4 | 0.0 | 1.6 | 0.00 | 0.00 | 0.00 | 85 | 1021.0 |
| 20260831030305 | 19 | 8 | 0.0 | 3.2 | 0.00 | 0.00 | 0.00 | 85 | 1021.0 |
| 20260831024804 | 19 | 326 | 0.0 | 1.6 | 0.00 | 0.00 | 0.00 | 85 | 1021.0 |
| 20260831024305 | 19 | 8 | 0.0 | 3.2 | 0.00 | 0.00 | 0.00 | 85 | 1021.0 |
| 20260831023804 | 19 | 17 | 0.0 | 1.6 | 0.00 | 0.00 | 0.00 | 85 | 1022.0 |
| 20260831023305 | 19 | 17 | 0.0 | 3.2 | 0.00 | 0.00 | 0.00 | 85 | 1022.0 |
| 20260831022805 | 19 | 8 | 0.0 | 1.6 | 0.00 | 0.00 | 0.00 | 85 | 1022.0 |
| 20260831022306 | 19 | 2 | 0.0 | 1.6 | 0.00 | 0.00 | 0.00 | 85 | 1022.0 |
| 20260831021805 | 19 | 8 | 0.0 | 1.6 | 0.00 | 0.00 | 0.00 | 85 | 1022.0 |
| 20260831021305 | 19 | 13 | 0.0 | 1.6 | 0.00 | 0.00 | 0.00 | 85 | 1022.0 |
| 20260831020805 | 19 | 26 | 1.6 | 3.2 | 0.00 | 0.00 | 0.00 | 85 | 1022.0 |
| 20260831020305 | 19 | 15 | 1.6 | 4.8 | 0.00 | 0.00 | 0.00 | 85 | 1022.0 |
| 20260831015805 | 19 | 2 | 0.0 | 3.2 | 0.00 | 0.00 | 0.00 | 84 | 1022.0 |
| 20260831015306 | 20 | 7 | 0.0 | 3.2 | 0.00 | 0.00 | 0.00 | 85 | 1022.0 |
| 20260831014804 | 20 | 0 | 0.0 | 1.6 | 0.00 | 0.00 | 0.00 | 85 | 1022.0 |
| 20260831014305 | 20 | 12 | 0.0 | 1.6 | 0.00 | 0.00 | 0.00 | 85 | 1022.0 |
| 20260831012306 | 20 | 20 | 0.0 | 1.6 | 0.00 | 0.00 | 0.00 | 85 | 1022.0 |
| 20260831011805 | 20 | 352 | 0.0 | 3.2 | 0.00 | 0.00 | 0.00 | 85 | 1022.0 |
| 20260831003305 | 20 | 21 | 1.6 | 3.2 | 0.00 | 0.00 | 0.00 | 85 | 1022.0 |
| 20260831002805 | 20 | 29 | 1.6 | 1.6 | 0.00 | 0.00 | 0.00 | 85 | 1022.0 |
| 20260831002306 | 20 | 5 | 0.0 | 1.6 | 0.00 | 0.00 | 0.00 | 85 | 1022.0 |
| 20260831000805 | 20 | 13 | 0.0 | 1.6 | 0.00 | 0.00 | 0.00 | 85 | 1022.0 |
| 20260831000304 | 20 | 15 | 0.0 | 3.2 | 0.00 | 0.00 | 0.00 | 85 | 1022.0 |
| 20260830234805 | 20 | 289 | 0.0 | 0.0 | 0.00 | 0.00 | 0.00 | 85 | 1022.0 |
| 20260830230804 | 20 | 305 | 1.6 | 4.8 | 0.00 | 0.00 | 0.00 | 84 | 1022.0 |
| 20260830230305 | 20 | 331 | 0.0 | 1.6 | 0.00 | 0.00 | 0.00 | 84 | 1022.0 |